COSMOS 2491 DEB, 57553

Orbit data source: Space-Track

COSMOS 2491 DEB, 57553 is space debris in LEO originally from a launch on Wed, 25 Dec 2013 UTC launched from the Plesetsk Missile And Space Complex (PKMTR). Debris objects in space refer to the collection of defunct objects orbiting the Earth. Examples of debris include non-operational satellites, rocket bodies, and fragments generated from explosions, collisions, or faulty payload assembly.

Loading next visibility...
Identifier
57553, 2013-076AQ
Orbit
LEO
Country
Flag of CISCIS
Related business
Manufacturer
TsNIIKhM
Mission
Spacecraft
Bus & Motor
Unknown
Mass
Unknown
Launch date (UTC)
2013-12-25 (12 years ago)
Launch vehicle
Unknown
Launch site
Plesetsk Missile And Space Complex (PKMTR)
Object type
Payload
Rocket body
Debris
Shape & HBR
Unknown shape, 0.1 m
Radar Cross Section
Small (<0.1 m²)

Expand to show TLE details & history
Last TLE update: 6 months ago

TLE from 6 months ago
0 COSMOS 2491 DEB
1 57553U 13076AQ  25104.11860335  .00000148  00000-0  89878-3 0  9997
2 57553  82.4768  59.5698 0045633 179.1239 180.9933 12.50245234 88150
Epoch: 2025-04-14T02:50Z
TLE epoch observation values (Epoch: 2025-04-14T02:50:47.329Z)
Latitude
-0°
Longitude
174.33445°
Altitude
1,501.964 km
Speed
7.097 km/s
True Right ascension
03h 58m 16s
True Declination
0° 00' 00"
Sunlit
Object was in daylight at epoch
Visualization orbit readout
Latitude
Unknown
Longitude
Unknown
Altitude
Unknown
Speed
Unknown
Apparent Right ascension
Unknown
Apparent Declination
Unknown
Sunlit
N/A
Visualization observer readout
Local Sidereal Time
21:23:26
Azimuth
Unknown
Elevation
Unknown
Doppler factor
Unknown
Orbital elements
Apogee altitude
1,496.582 km
Perigee altitude
1,425.039 km
Semi-major axis
7,838.948 km
Eccentricity
0.00456
Inclination
82.4768°
RAAN
59.5698°
Arg. of periapsis
179.1239°
True anomaly
180.98429°
Mean anomaly
180.9933°
Eccentric anomaly
180.98879°
Mean motion
3.12721 °/min
Orbital period
115.12 mins
BSTAR
0.00089878
Loading maneuver chart data...
Computing Atmospheric mass density...
Loading historical data...
Loading historical data...
Loading historical data...
Loading historical data...
Loading historical data...
Loading historical data...
Loading historical data...

Documentation

Showing up to 5 results
|